Wind_Speed
20 17 9 14 17 28 35 38 39 39 40 39 44 43 40 36 35 33 27 22 31 33 32 28 27 25 23 18 17 17 17 15 14
19 15 17 20 11 25 32 35 39 42 40 39 43 46 45 41 38 37 34 24 25 33 34 31 29 27 27 22 19 19 17 18 16
12 13 18 18 16 22 27 34 32 32 38 41 43 43 43 44 42 40 38 34 27 28 30 34 30 30 29 26 22 21 19 17 16
17 16 15 16 12 19 27 30 37 37 35 36 37 40 40 40 42 43 40 38 35 28 27 33 28 29 33 31 26 22 22 18 16
7 13 14 9 17 31 33 28 28 36 36 37 39 39 38 39 42 46 42 40 40 35 29 26 30 23 30 35 29 26 25 21 19
6 6 7 10 12 5 7 19 23 24 36 39 39 38 38 37 37 40 44 43 43 39 37 29 24 26 25 34 32 30 29 26 22
3 14 6 2 6 6 8 11 12 24 29 35 37 38 37 36 38 40 42 43 42 43 40 38 31 27 30 34 34 32 30 28 25
22 15 13 9 8 12 17 11 13 19 18 34 37 37 37 39 36 37 38 40 41 45 46 41 42 35 33 31 35 35 35 31 28
14 11 13 11 13 12 13 14 16 17 7 24 32 36 38 38 38 36 37 40 41 40 46 47 43 44 40 38 36 36 34 32 31
9 7 7 8 11 14 17 12 9 6 12 9 8 21 33 36 35 37 36 35 37 38 39 39 39 40 42 41 40 38 35 33 32
10 10 8 7 8 12 19 19 20 18 12 14 16 17 23 33 34 35 36 36 36 37 36 39 37 38 39 39 42 41 38 36 35
13 9 12 15 18 19 19 25 28 24 8 9 6 4 7 9 32 35 34 37 38 36 34 34 37 37 35 39 40 40 43 40 38
9 15 9 10 13 15 14 17 18 18 14 12 8 3 10 23 26 33 36 39 39 38 37 36 34 35 36 37 39 39 40 39 40
8 10 8 7 9 11 14 23 24 20 16 11 14 12 11 28 32 31 41 41 39 38 35 34 34 35 34 35 40 40 40 39 40
5 8 11 8 7 11 12 17 22 24 20 24 19 15 16 30 30 25 38 40 39 37 35 33 33 32 31 34 36 40 40 41 42
6 6 11 10 10 13 17 19 20 19 20 27 28 19 21 26 25 24 34 37 37 33 34 32 31 31 31 29 31 33 38 41 42
7 10 11 16 11 10 15 20 20 22 23 27 22 19 21 22 21 25 31 35 36 34 33 32 31 29 29 28 28 30 33 37 42
15 13 13 12 6 10 11 19 21 21 21 26 29 25 26 26 21 25 26 33 33 36 37 37 36 33 31 28 29 33 33 32 39
17 15 14 6 4 6 10 14 16 16 20 21 25 27 20 21 26 26 21 24 30 37 35 37 41 37 36 33 35 32 34 38 37
18 11 6 4 3 6 10 12 9 11 17 18 20 17 19 22 21 22 18 24 24 24 34 37 37 40 39 37 33 37 34 33 35
Wind_Direction
193 198 184 194 187 178 184 184 184 185 187 189 194 200 208 215 219 225 226 221 212 208 205 207 211 211 206 206 203 201 199 201 210
183 177 193 183 157 180 184 189 188 188 189 191 194 201 207 213 219 222 228 220 217 214 214 213 214 212 211 212 211 209 205 206 208
182 172 164 167 166 174 180 187 195 199 193 190 195 200 205 213 220 222 226 226 223 221 218 215 215 216 216 215 214 214 212 210 211
187 196 187 171 153 170 179 185 187 193 200 196 193 198 204 209 219 225 227 230 228 224 224 224 222 222 218 216 214 215 217 216 217
193 189 190 214 180 180 184 186 182 188 194 197 198 199 202 209 216 222 229 231 231 230 228 224 216 220 222 216 215 216 216 218 222
215 159 183 220 232 189 203 185 188 191 194 198 199 199 201 205 211 215 222 230 233 232 230 229 219 222 219 216 217 219 221 224 228
316 194 194 296 322 301 311 342 226 206 197 199 199 198 202 205 206 213 218 223 230 233 232 230 229 221 219 217 218 219 221 225 230
43 48 52 28 344 300 285 286 232 229 243 200 196 198 202 208 209 209 215 218 223 231 232 234 232 230 223 224 224 221 221 224 231
84 60 49 17 13 356 319 237 243 220 320 192 195 199 205 207 207 208 209 216 217 223 230 232 236 236 235 228 224 225 225 229 233
14 49 84 53 9 6 349 40 33 322 259 277 235 216 211 211 207 208 210 213 215 218 223 226 230 234 235 235 231 230 231 235 239
6 2 0 63 57 15 1 11 8 341 302 264 262 255 224 213 211 209 209 213 214 215 217 222 224 229 230 230 234 233 233 237 241
0 349 350 6 22 29 12 0 353 345 306 240 258 328 330 310 219 215 209 210 216 216 212 217 221 224 227 229 233 236 239 239 238
357 350 29 15 12 15 9 1 346 349 355 355 353 310 306 316 297 238 214 214 213 215 214 216 220 223 223 226 230 234 238 239 237
354 15 13 29 32 21 7 348 350 354 0 356 334 288 284 298 279 261 222 218 214 213 212 215 218 222 222 223 230 232 236 236 233
358 355 10 7 23 19 17 7 354 344 343 340 346 337 292 290 282 270 224 216 216 212 212 213 217 218 220 223 225 232 233 236 235
319 358 341 352 9 13 2 5 2 321 339 342 336 325 300 300 296 295 228 215 215 211 210 212 216 216 219 220 223 227 233 237 238
316 336 337 340 356 15 5 345 354 338 339 336 324 313 312 316 309 288 241 217 212 211 210 212 216 215 218 220 221 223 226 232 235
299 318 317 337 3 2 359 347 342 336 335 333 317 331 332 326 306 296 238 216 207 211 216 212 211 214 215 213 218 223 224 225 231
288 296 302 307 334 352 335 339 340 339 329 326 318 325 326 316 311 311 275 223 219 217 219 223 222 218 214 219 225 227 227 228 235
273 276 271 312 344 342 332 330 335 337 325 312 324 306 317 316 313 307 304 227 206 210 218 222 221 223 224 224 227 231 232 234 236
Height
751 757 763 763 766 772 777 782 787 792 798 805 812 819 826 830 834 837 840 842 843 845 847 847 849 851 854 855 856 858 859 861 863
745 748 750 754 761 766 771 778 781 785 791 798 804 812 820 826 829 833 836 839 840 842 844 845 847 849 851 853 855 856 858 859 861
745 744 742 745 747 754 762 768 778 787 787 790 797 807 814 821 826 829 832 836 839 839 841 844 846 847 849 852 853 855 856 857 858
734 742 742 737 742 748 751 759 764 773 784 788 792 799 807 814 821 826 829 832 836 838 839 841 844 844 846 849 851 853 854 855 856
728 737 738 747 737 735 740 747 754 762 773 781 785 793 801 808 814 821 825 828 830 835 837 839 841 841 842 844 847 850 851 852 853
731 732 736 740 740 745 748 745 749 758 764 771 779 786 793 800 807 812 818 823 826 830 833 836 837 838 838 841 843 846 848 849 851
724 726 734 744 743 743 752 755 755 758 758 766 775 780 788 794 798 804 810 816 821 824 827 830 832 834 835 836 838 841 844 846 847
745 745 747 751 750 749 749 753 756 759 761 762 768 774 780 786 792 796 803 808 813 817 820 823 826 828 831 833 834 836 839 841 842
764 767 764 761 758 755 748 748 756 757 763 760 765 766 771 778 785 789 793 798 804 810 812 815 819 821 824 826 828 831 834 837 838
779 771 768 765 761 755 756 754 755 756 760 761 759 764 769 773 778 782 786 792 796 800 803 808 811 814 817 819 821 825 828 832 833
787 778 772 767 765 764 759 752 751 755 753 752 756 762 763 767 772 775 779 786 788 791 795 799 803 806 809 813 814 817 822 825 828
792 784 776 769 760 758 755 753 747 750 753 754 754 755 758 766 769 769 772 775 781 784 787 791 794 797 801 804 806 809 814 818 821
796 791 789 784 775 768 762 763 759 756 750 749 752 750 750 758 766 767 766 767 771 775 778 780 786 790 792 795 798 801 805 810 813
798 796 793 790 781 775 766 759 755 752 753 755 748 741 738 751 754 756 756 759 763 768 769 773 777 782 784 786 788 791 795 800 804
797 793 790 790 782 775 774 768 758 751 751 749 747 739 745 750 748 747 748 750 753 757 761 764 768 773 775 777 779 781 785 789 792
793 792 789 788 780 772 769 764 761 764 756 750 745 746 748 744 738 741 738 740 744 748 751 755 759 763 766 767 770 773 775 778 781
787 785 783 779 779 774 765 771 762 761 750 750 754 748 741 736 732 729 730 732 733 738 740 744 750 753 756 758 762 763 765 767 771
782 781 780 779 778 778 776 769 765 764 757 751 748 736 728 723 726 723 722 723 722 726 727 732 737 740 746 748 750 750 755 758 760
780 777 777 775 774 773 775 774 768 765 759 757 751 731 730 728 721 712 710 713 712 716 719 728 730 732 734 737 739 743 746 749 751
776 774 773 771 768 768 768 770 772 769 766 761 748 742 735 726 718 714 709 707 708 710 713 720 722 726 728 730 732 736 738 741 745